Accueil
METAR-TAF:

METAR-TAF

Aéroports :

Hartford, Connecticut, États-Unis

latitude: 41-44-06N, longitude: 072-39-06W, altitude: 5 m

Observation

Le bulletin a été fait il y a 1 heure et 3 minutes, à 00:53 UTC
Vent calme
Température -2°C
Humidité 63%
Pression 1022 hPa
Visibilité: 16.1 km
Ciel clair

METAR: KHFD 110053Z 00000KT 10SM CLR M02/M08 A3017 RMK AO2 SLP216 T10221083

Heure: 20:56 (01:56 UTC)


TAF: absent

Observations et prévisions météorologiques de plus de 4000 aéroports (messages METAR et TAF).

Les stations disponibles sont représentées par des disques jaunes et rouges sur la carte.

Passer la souris dessus pour voir le nom de la station.

Cliquer dessus pour voir les observations et prévisions météorologiques.

Pour changer de carte: cliquez sur les boutons verts avec une croix noire pour zoomer, sur le bouton vert avec un tiret pour effectuer un zoom arrière, ou sur les flèches vertes pour les cartes adjacentes.


METAR-TAF: